This is the latest recevied weather packets stored in our database for station/object AD8BV. If no packets are shown the sender has not sent any weather packets the latest 10 day(s).
| Time | Temp. | Humidity | Pressure | Rain* | Wind** | Luminosity | Snow |
|---|---|---|---|---|---|---|---|
| 1777652836 | 10.56° C | 55% | 1015.5 hPa | 0 mm | - | 362 W/m² | - |
| 1777652532 | 9.44° C | 53% | 1015.4 hPa | 0 mm | - | 957 W/m² | - |
| 1777652230 | 8.89° C | 57% | 1015.3 hPa | 0 mm | - | 340 W/m² | - |
| 1777651927 | 9.44° C | 57% | 1015.5 hPa | 0 mm | - | 287 W/m² | - |
| 1777651623 | 9.44° C | 59% | 1015.4 hPa | 0 mm | - | 182 W/m² | - |
| 1777651321 | 9.44° C | 56% | 1015.5 hPa | 0 mm | - | 399 W/m² | - |
| 1777651017 | 9.44° C | 55% | 1015.5 hPa | 0 mm | - | 560 W/m² | - |
| 1777650714 | 9.44° C | 56% | 1015.4 hPa | 0 mm | - | 714 W/m² | - |
| 1777650411 | 9.44° C | 62% | 1015.5 hPa | 0 mm | - | 676 W/m² | - |
| 1777650108 | 8.89° C | 61% | 1015.4 hPa | 0 mm | - | 571 W/m² | - |
| 1777649806 | 8.89° C | 63% | 1015.4 hPa | 0 mm | - | 618 W/m² | - |
| 1777649503 | 8.33° C | 56% | 1015.3 hPa | 0 mm | - | 164 W/m² | - |
| 1777649199 | 8.33° C | 58% | 1015.3 hPa | 0 mm | - | 398 W/m² | - |
| 1777648896 | 8.33° C | 62% | 1015.3 hPa | 0 mm | - | 181 W/m² | - |
| 1777648290 | 8.89° C | 61% | 1015.4 hPa | 0 mm | - | 166 W/m² | - |
| 1777647986 | 9.44° C | 60% | 1015.5 hPa | 0 mm | - | 215 W/m² | - |
| 1777647683 | 8.89° C | 61% | 1015.4 hPa | 0 mm | - | 766 W/m² | - |
| 1777647379 | 8.33° C | 64% | 1015.3 hPa | 0 mm | - | 827 W/m² | - |
| 1777647077 | 8.33° C | 70% | 1015.4 hPa | 0 mm | - | 333 W/m² | - |
| 1777646773 | 7.78° C | 71% | 1015.2 hPa | 0 mm | - | 206 W/m² | - |
| 1777646473 | 7.78° C | 71% | 1015.2 hPa | 0 mm | - | 216 W/m² | - |
| 1777646169 | 7.78° C | 73% | 1015.4 hPa | 0 mm | - | 170 W/m² | - |
| 1777645867 | 8.33° C | 72% | 1015.2 hPa | 0 mm | - | 489 W/m² | - |
| 1777645564 | 7.78° C | 76% | 1015.3 hPa | 0 mm | - | 293 W/m² | - |
| 1777645260 | 7.22° C | 77% | 1015.5 hPa | 0 mm | - | 190 W/m² | - |
* Rain latest hour (hover to see other rain measurements)
** Current wind speed in m/s (hover to see current wind gust speed)